Location: Prescott
(34.5400°N, 112.4680°W)
Time: 04:36:21
(UTC-07:00)

N. Korean satellite - Visible Passes

Search period start: 18 October 2019 00:00
Search period end: 28 October 2019 00:00
Orbit: 455 x 508 km, 97.2° (Epoch: 18 October)

Date Brightness Start Highest point End Pass type
(mag) Time Alt. Az. Time Alt. Az. Time Alt. Az.
18 Oct 10.2 18:40:58 10° WSW 18:42:39 13° W 18:44:20 10° WNW visible
19 Oct 7.5 06:08:32 10° NNE 06:12:07 55° E 06:15:42 10° S visible
19 Oct 8.9 18:14:13 10° SSW 18:17:13 29° W 18:20:16 10° NW visible
20 Oct 9.3 05:43:45 10° NE 05:46:46 24° E 05:49:48 10° SSE visible
21 Oct 10.4 05:20:05 10° ENE 05:21:21 11° E 05:22:36 10° ESE visible
22 Oct 9.9 18:32:30 10° SW 18:34:45 17° W 18:37:02 10° NW visible
23 Oct 8.1 06:00:48 10° NNE 06:04:18 43° E 06:07:49 10° S visible
24 Oct 9.7 05:36:11 10° NE 05:38:55 20° E 05:41:39 10° SE visible
26 Oct 9.5 18:24:09 10° SSW 18:26:50 21° W 18:29:33 10° NW visible
27 Oct 8.6 05:53:03 10° NNE 05:56:26 34° E 05:59:49 10° SSE visible
